User: anonymous   Login
Location: Mactaquac Provincial Park
(45.9573°N, 66.8897°W)
Time: 00:35:33
(UTC-03:00)
Language:

Cosmos 1766 - Orbit

View from above orbital plane
View from above orbital plane
View from above satellite
View from above satellite

Ground track
Ground track

The orbit data is extracted from the following two-line orbital elements,

1 16881U 86055A   16270.54912032  .00000471  00000-0  27337-4 0  9998
2 16881  82.5055 281.5174 0014434 294.7176  65.2550 15.09722569641652
Epoch (UTC): 26 September 2016 13:10:43
Eccentricity: 0.0014434
inclination: 82.5055°
perigee height: 527 km
apogee height: 547 km
right ascension of ascending node: 281.5174°
argument of perigee: 294.7176°
revolutions per day: 15.09722569
mean anomaly at epoch: 65.2550°
orbit number at epoch: 64165

The dashed part of the orbit path shows where the satellite is in the earth's shadow,  

DLR